Regional Weather Roundup
Issued by NWS

Home | Current Version | Previous Version | Graphics & Text | Print | Product List | Glossary Off
Versions: 1 2 3 4 5 6 7 8 9 10 11 12 13 14 15 16 17 18 19 20 21 22 23 24 25 26 27 28 29 30 31 32 33 34 35 36 37 38 39 40 41 42 43 44 45 46 47 48 49 50

683
ASUS43 KTOP 181859
RWRKS

WEATHER ROUNDUP FOR KANSAS
NATIONAL WEATHER SERVICE GOODLAND KS
100 PM CST WED JAN 18 2017

NOTE:  "FAIR" INDICATES FEW OR NO CLOUDS BELOW 12,000 FEET WITH NO
SIGNIFICANT WEATHER AND/OR OBSTRUCTIONS TO VISIBILITY.

KSZ001>006-013>018-027>032-041>047-182000-
NORTHWEST KANSAS

CITY           SKY/WX    TMP DP  RH WIND       PRES   REMARKS
GOODLAND       CLOUDY    44  33  65 W5        29.87F
HAYS           LGT RAIN  47  40  76 S10       29.94F
HILL CITY      SUNNY     45  36  70 S8        29.94F
$$

KSZ061>065-074>080-084>089-182000-
SOUTHWEST KANSAS

CITY           SKY/WX    TMP DP  RH WIND       PRES   REMARKS
DODGE CITY     MOSUNNY   53  41  63 S24       29.96F
ELKHART          N/A     46  32  58 S10         N/A
GARDEN CITY    MOSUNNY   50  43  77 S20       29.93F
GREAT BEND     PTSUNNY   52  38  58 S17       29.98F
LIBERAL        CLOUDY    52  43  71 S15       29.96F
$$

KSZ066>073-081>083-090>101-182000-
SOUTHEAST KANSAS

CITY           SKY/WX    TMP DP  RH WIND       PRES   REMARKS
CHANUTE        CLOUDY    44  40  85 S6        30.10F
COFFEYVILLE    CLOUDY    48  40  73 VRB3      30.10F
HUTCHINSON     CLOUDY    53  37  54 S15       30.02F
MEDICINE LODGE   N/A     51  37  58 S12       30.02F
NEWTON         CLOUDY    51  37  58 S17       30.03F
PARSONS        CLOUDY    46  40  79 VRB3      30.10F
WICHITA INTL   PTSUNNY   51  39  63 S13       30.04F
WICHITA JABRA  CLOUDY    50  39  66 S12       30.04F
WINFIELD       CLOUDY    53  40  61 S10       30.07F
$$

KSZ007>012-019>026-033>040-048>060-102>105-182000-
NORTHEAST KANSAS

CITY           SKY/WX    TMP DP  RH WIND       PRES   REMARKS
CONCORDIA      CLOUDY    49  38  65 S18       29.97F
EMPORIA        SUNNY     53  33  46 S10       30.05F
LAWRENCE       SUNNY     43  37  79 S9        30.10F
MANHATTAN      SUNNY     56  36  47 SW12      30.02F
OLATHE IND     CLOUDY    39  39 100 S8        30.10S FOG
OLATHE EXE     PTSUNNY   40  40 100 S10       30.10F WCI  33
SALINA         CLOUDY    45  36  70 S13       30.05F
TOPEKA BILLARD SUNNY     50  36  58 S12       30.07F
TOPEKA FORBES  SUNNY     51  37  58 S14       30.06F
$$




USA.gov is the U.S. government's official web portal to all federal, state and local government web resources and services.